sat.trackr.live / text

‹ back to catalog

STARLINK-32232

NORAD 60431 · 2024-144G

PAYLOAD ACTIVE UNKNOWN

§ Identity

Operator
Country
US
Launch date
2024-08-12
Launch site
AFETR
Launch vehicle
Mass (kg)
RCS (m²)

Purposes: comms

External: N2YO · Heavens-Above · Gunter

§ Orbital elements

Epoch: 2026-05-25T05:17:40.001568Z

Period
94.11 min
Inclination
53.1601°
Eccentricity
0.0000857
Mean motion
15.30189631 rev/d
Perigee alt
474.7 km
Apogee alt
475.8 km
Semi-major
6,853.4 km
B*
1.3211e-5
RAAN
221.8531°
Arg perigee
76.8674°
Mean anomaly
283.2422°
Rev number
10,102

§ Raw data

STARLINK-322321 60431U 24144G   26145.22060187  .00000032  00000+0  13211-4 0  99992 60431  53.1601 221.8531 0000857  76.8674 283.2422 15.30189631101026

JSON: /api/v1/satellites/60431 · /tle

For live sub-satellite position, see the globe view (requires WebGL).

§ Visibility from observer

Set your observer location to see the next 7 days of passes ≥ 10°. The values pass through the URL so the page stays shareable.

No JS? Fill the form by hand. The geolocation button needs JavaScript.